Hundvaag 1 weather for Jul 1999
Month no. 145
Obs.
Da.
Temp. Dew Point Precip. Wind
Speed
Wind gusts Cloud cover Press. Humidity Wind dir. Sunny OPT
01.07.1999 12,6   0,0     0          
02.07.1999 12,5   23,0     2       1  
03.07.1999 14,2   0,0     9       1  
04.07.1999 14,4   0,0     0          
05.07.1999 14,5   15,0     0          
06.07.1999 13,0   0,0     4       1  
07.07.1999 12,2   0,0     7       1  
08.07.1999 11,2   0,0     10       1  
09.07.1999 15,3   0,0     6       1  
10.07.1999 18,6   0,0     10       1  
11.07.1999 18,7   0,0     10       1  
12.07.1999 17,8   0,0     10       1  
13.07.1999 13,4   0,0     0       1  
14.07.1999 15,8   0,0     0       1  
15.07.1999 15,4   2,0     7       1  
16.07.1999 16,7   0,0     9       1  
17.07.1999 13,7   3,0     5       1  
18.07.1999 16,1   0,0     3       1  
19.07.1999 14,9   7,0     0       1  
20.07.1999 17,9   2,0     0          
21.07.1999 14,9   0,0     0          
22.07.1999 14,3   19,0     0       1  
23.07.1999 11,8   30,0     7       1  
24.07.1999 13,8   1,0     0       1  
25.07.1999 13,5   24,0     0          
26.07.1999 10,0   7,0     0       1  
27.07.1999 11,1   2,0     8       1  
28.07.1999 13,3   0,0     0       1  
29.07.1999 13,5   0,0     0          
30.07.1999 12,7   0,0     0          
31.07.1999 12,6   0,0     10       1  
Avrg/Sum 14,2   135,0     3,8       23